Weather in Ibague

Colombia     4°25′20″N   75°14′09″W
temp.,
°C
wind,
m/s
gust,
m/s
humid.,
%
clouds,
%
prec.,
mm/h
press.,
hPa
HPBL,
m
18 april, sun
sun1801:00+13nw1197100 2.8 101725
04:00+13nw1196100 2.1 101621
07:00+14wnw1191100 2.4 101740
10:00+16sse1182100 0.6 1018387
13:00+19se3279100 2.1 1014973
16:00+16ese229481 4.2 1013373
19:00+14nw119898 8.6 101659
22:00+14nnw2195100 2.6 101832
19 april, mon
mon1901:00+13nnw2193100 4.3 101725
04:00+12nw219299 0.4 101619
07:00+13nw019298 0.8 101820
10:00+16se2189100 1.1 1019529
13:00+15se2295100 3.1 1016571
16:00+15sse1194100 4.8 1015318
19:00+12nw2195100 7.3 101823
22:00+12nnw229297 0.2 102031
20 april, tue
tue2001:00+12nw229099 0.2 101733
04:00+12nw218595 0.0 101718
07:00+14wnw018256 0.0 101943
10:00+17se327648 0.3 1018864
13:00+16ese218999 2.1 1016695
16:00+15se1194100 1.2 1014127
19:00+13nw2194100 2.3 101726
22:00+12nw2292100 0.4 101929
21 april, wed
wed2101:00+12nw228998 0.6 101733
04:00+12nnw219081 0.0 101720
07:00+14nw118584 0.0 101831
10:00+16sse117871 0.1 1018408
13:00+18se327796 1.1 1015950
16:00+15ssw0188100 3.1 1014363
19:00+13nw229346 7.7 101726
22:00+12nw229189 0.9 101930
22 april, thu
thu2201:00+12nw219129 1.1 101721
04:00+12nw218967 0.0 101622
07:00+14nw118648 0.1 101880
10:00+16se229276 1.6 1018504
13:00+16se218964 4.4 1015581
16:00+16e1192100 2.8 1012189
19:00+12nw3491100 6.4 101656
22:00+12nnw2288100 0.6 101826